カタログに戻る

STARLINK-4102

運用中通信VLEO
NORAD 53143·PAYLOAD·🇺🇸 United States

打ち上げ Jul 17, 2022 から Cape Canaveral Space Force Station

Loading…

次のパス (今後24時間)

TLE

最新Source: CelesTrak SupGP

元期: Sep 14, 2026, 14:00 UTC

1 53143C 22083M   26257.58381944  .00251550  00000+0  63519-2 0  2575
2 53143  53.1610  37.6714 0000966  75.0392 146.4518 15.39128839    18

AllMySatでSTARLINK-4102をリアルタイム追跡

Download on the App Store